Location: Saint-Restitut
(44.3351°N, 4.7915°E)
Time: 16:02:54
(UTC+00:00)

CSL-04 Debris - Pass Details

Date: 01 March 2024
Orbit: 824 x 843 km, 98.8° (Epoch: 21 April)

Event Time Altitude Azimuth Distance (km) Brightness Sun altitude
Exits shadow 18:25:06 10° 118° (ESE) 2,432 6.1 -10.7°
Reaches altitude 10° 18:25:07 10° 118° (ESE) 2,424 6.0 -10.7°
Maximum altitude 18:29:30 26° 63° (ENE) 1,560 5.1 -11.5°
Drops below altitude 10° 18:33:54 10° 8° (N) 2,434 6.5 -12.3°
Sets 18:36:35 0° 357° (N) 3,372 7.4 -12.8°
